Hourly Weather Lugnica

Today, 15 May, Saturday

Time Temperature Precipitation Wind Pressure Humidity
00:00 +9°C° 0 mm 3 mps 736 mmHg 93%
01:00 +9°C° 0 mm 3 mps 736 mmHg 94%
02:00 +8°C° 0 mm 3 mps 736 mmHg 95%
03:00 +8°C° 0 mm 3 mps 736 mmHg 95%
04:00 +7°C° 0 mm 2 mps 737 mmHg 96%
05:00 +9°C° 0 mm 3 mps 737 mmHg 91%
06:00 +10°C° 0 mm 3 mps 737 mmHg 85%
07:00 +12°C° 0 mm 3 mps 738 mmHg 80%
08:00 +13°C° 0 mm 3 mps 738 mmHg 75%
09:00 +14°C° 0 mm 3 mps 738 mmHg 69%
10:00 +17°C° 0 mm 3 mps 738 mmHg 63%
11:00 +17°C° 0.1 mm 3 mps 738 mmHg 62%
12:00 +17°C° 0.1 mm 3 mps 738 mmHg 60%
13:00 +18°C° 0.1 mm 2 mps 737 mmHg 59%
14:00 +18°C° 0.1 mm 2 mps 737 mmHg 61%
15:00 +18°C° 0.1 mm 2 mps 737 mmHg 63%
16:00 +18°C° 0.1 mm 2 mps 737 mmHg 65%
17:00 +16°C° 0 mm 2 mps 737 mmHg 70%
18:00 +15°C° 0 mm 2 mps 736 mmHg 75%
19:00 +14°C° 0 mm 2 mps 736 mmHg 80%
20:00 +13°C° 0 mm 2 mps 736 mmHg 82%
21:00 +12°C° 0 mm 2 mps 736 mmHg 85%
22:00 +11°C° 0 mm 3 mps 736 mmHg 87%
23:00 +11°C° 0 mm 3 mps 736 mmHg 87%

Tomorrow, 16 May, Sunday

Time Temperature Precipitation Wind Pressure Humidity
00:00 +10°C° 0 mm 3 mps 736 mmHg 87%
01:00 +10°C° 0 mm 3 mps 736 mmHg 86%
02:00 +10°C° 0 mm 3 mps 735 mmHg 88%
03:00 +10°C° 0 mm 2 mps 735 mmHg 89%
04:00 +10°C° 0 mm 2 mps 735 mmHg 90%
05:00 +12°C° 0 mm 2 mps 735 mmHg 86%
06:00 +12°C° 0 mm 3 mps 735 mmHg 82%
07:00 +13°C° 0 mm 3 mps 735 mmHg 79%
08:00 +14°C° 0.2 mm 3 mps 735 mmHg 75%
09:00 +16°C° 0.2 mm 3 mps 735 mmHg 72%
10:00 +17°C° 0.2 mm 3 mps 735 mmHg 69%
11:00 +17°C° 0.3 mm 4 mps 735 mmHg 70%
12:00 +17°C° 0.3 mm 4 mps 735 mmHg 71%
13:00 +16°C° 0.3 mm 5 mps 734 mmHg 72%
14:00 +16°C° 0.3 mm 5 mps 734 mmHg 73%
15:00 +17°C° 0.3 mm 4 mps 734 mmHg 75%
16:00 +17°C° 0.3 mm 4 mps 734 mmHg 77%
17:00 +14°C° 0.2 mm 4 mps 734 mmHg 82%
18:00 +13°C° 0.2 mm 3 mps 734 mmHg 87%
19:00 +13°C° 0.2 mm 2 mps 734 mmHg 92%
20:00 +13°C° 0.1 mm 2 mps 734 mmHg 93%
21:00 +12°C° 0.1 mm 2 mps 735 mmHg 94%
22:00 +12°C° 0.1 mm 2 mps 735 mmHg 94%
23:00 +10°C° 0 mm 2 mps 735 mmHg 94%

Day after tomorrow, 17 May, Monday

Time Temperature Precipitation Wind Pressure Humidity
00:00 +9°C° 0 mm 2 mps 735 mmHg 94%
01:00 +9°C° 0 mm 1 mps 735 mmHg 94%
02:00 +9°C° 0 mm 1 mps 735 mmHg 94%
03:00 +9°C° 0 mm 1 mps 735 mmHg 93%
04:00 +7°C° 0 mm 0 mps 735 mmHg 93%
05:00 +10°C° 0 mm 1 mps 735 mmHg 89%
06:00 +12°C° 0 mm 1 mps 735 mmHg 85%
07:00 +14°C° 0 mm 2 mps 735 mmHg 80%
08:00 +15°C° 0 mm 2 mps 735 mmHg 74%
09:00 +17°C° 0 mm 2 mps 735 mmHg 67%
10:00 +18°C° 0 mm 2 mps 735 mmHg 60%
11:00 +17°C° 0.6 mm 3 mps 735 mmHg 66%
12:00 +17°C° 0.6 mm 3 mps 734 mmHg 72%
13:00 +15°C° 0.6 mm 4 mps 734 mmHg 78%
14:00 +14°C° 1.4 mm 3 mps 734 mmHg 83%
15:00 +13°C° 1.4 mm 3 mps 735 mmHg 88%
16:00 +13°C° 1.4 mm 2 mps 735 mmHg 94%
17:00 +12°C° 0.1 mm 2 mps 735 mmHg 94%
18:00 +12°C° 0.1 mm 2 mps 735 mmHg 93%
19:00 +12°C° 0.1 mm 2 mps 735 mmHg 93%
20:00 +10°C° 0 mm 2 mps 735 mmHg 94%
21:00 +9°C° 0 mm 2 mps 735 mmHg 94%
22:00 +9°C° 0 mm 3 mps 735 mmHg 95%
23:00 +8°C° 0 mm 3 mps 735 mmHg 95%

18 May, Tuesday

Time Temperature Precipitation Wind Pressure Humidity
00:00 +8°C° 0 mm 3 mps 735 mmHg 94%
01:00 +7°C° 0 mm 4 mps 735 mmHg 94%
02:00 +6°C° 0 mm 4 mps 736 mmHg 95%
03:00 +7°C° 0 mm 3 mps 736 mmHg 96%
04:00 +7°C° 0 mm 3 mps 736 mmHg 96%
05:00 +7°C° 0 mm 4 mps 736 mmHg 92%
06:00 +8°C° 0 mm 4 mps 737 mmHg 87%
07:00 +9°C° 0 mm 5 mps 737 mmHg 83%
08:00 +12°C° 0 mm 5 mps 737 mmHg 76%
09:00 +13°C° 0 mm 6 mps 737 mmHg 68%
10:00 +15°C° 0 mm 6 mps 737 mmHg 61%
11:00 +15°C° 0.1 mm 6 mps 737 mmHg 61%
12:00 +15°C° 0.1 mm 6 mps 737 mmHg 60%
13:00 +15°C° 0.1 mm 6 mps 737 mmHg 60%
14:00 +15°C° 0.1 mm 5 mps 737 mmHg 63%
15:00 +15°C° 0.1 mm 5 mps 737 mmHg 65%
16:00 +14°C° 0.1 mm 4 mps 737 mmHg 68%
17:00 +13°C° 0.1 mm 4 mps 738 mmHg 73%
18:00 +12°C° 0.1 mm 3 mps 738 mmHg 78%
19:00 +12°C° 0.1 mm 2 mps 738 mmHg 83%
20:00 +10°C° 0 mm 2 mps 738 mmHg 86%
21:00 +9°C° 0 mm 2 mps 738 mmHg 89%
22:00 +8°C° 0 mm 2 mps 738 mmHg 92%
23:00 +8°C° 0 mm 2 mps 738 mmHg 93%

19 May, Wednesday

Time Temperature Precipitation Wind Pressure Humidity
00:00 +7°C° 0 mm 2 mps 738 mmHg 94%
01:00 +7°C° 0 mm 2 mps 739 mmHg 94%
02:00 +6°C° 0 mm 2 mps 738 mmHg 95%
03:00 +6°C° 0 mm 2 mps 738 mmHg 95%
04:00 +6°C° 0 mm 2 mps 738 mmHg 95%
05:00 +7°C° 0 mm 3 mps 739 mmHg 91%
06:00 +9°C° 0 mm 3 mps 739 mmHg 87%
07:00 +10°C° 0 mm 3 mps 740 mmHg 82%
08:00 +11°C° 0 mm 3 mps 740 mmHg 80%
09:00 +11°C° 0 mm 4 mps 740 mmHg 78%
10:00 +11°C° 0 mm 4 mps 740 mmHg 75%
11:00 +12°C° 0 mm 5 mps 740 mmHg 72%
12:00 +13°C° 0 mm 5 mps 739 mmHg 69%
13:00 +14°C° 0 mm 5 mps 739 mmHg 66%
14:00 +13°C° 0.1 mm 5 mps 739 mmHg 67%
15:00 +13°C° 0.1 mm 4 mps 739 mmHg 69%
16:00 +13°C° 0.1 mm 4 mps 739 mmHg 70%
17:00 +12°C° 0.1 mm 4 mps 739 mmHg 74%
18:00 +11°C° 0.1 mm 3 mps 739 mmHg 78%
19:00 +10°C° 0.1 mm 3 mps 739 mmHg 82%
20:00 +10°C° 0 mm 3 mps 739 mmHg 84%
21:00 +9°C° 0 mm 3 mps 740 mmHg 86%
22:00 +8°C° 0 mm 3 mps 740 mmHg 89%
23:00 +7°C° 0 mm 3 mps 740 mmHg 90%

20 May, Thursday

Time Temperature Precipitation Wind Pressure Humidity
00:00 +7°C° 0 mm 3 mps 740 mmHg 92%
01:00 +5°C° 0 mm 3 mps 740 mmHg 93%
02:00 +5°C° 0 mm 3 mps 740 mmHg 94%
03:00 +5°C° 0 mm 3 mps 740 mmHg 94%
04:00 +4°C° 0 mm 3 mps 740 mmHg 95%
05:00 +6°C° 0 mm 4 mps 741 mmHg 89%
06:00 +7°C° 0 mm 5 mps 741 mmHg 83%
07:00 +9°C° 0 mm 5 mps 741 mmHg 77%
08:00 +10°C° 0.2 mm 6 mps 741 mmHg 73%
09:00 +11°C° 0.2 mm 6 mps 741 mmHg 68%
10:00 +13°C° 0.2 mm 6 mps 741 mmHg 63%
11:00 +12°C° 0.3 mm 7 mps 742 mmHg 66%
12:00 +12°C° 0.3 mm 7 mps 742 mmHg 69%
13:00 +12°C° 0.3 mm 7 mps 742 mmHg 72%
14:00 +12°C° 0.1 mm 7 mps 742 mmHg 70%
15:00 +13°C° 0.1 mm 6 mps 742 mmHg 68%
16:00 +13°C° 0.1 mm 5 mps 742 mmHg 65%
17:00 +12°C° 0.1 mm 5 mps 743 mmHg 70%
18:00 +11°C° 0.1 mm 4 mps 743 mmHg 75%
19:00 +10°C° 0.1 mm 3 mps 743 mmHg 81%
20:00 +9°C° 0 mm 3 mps 743 mmHg 85%
21:00 +8°C° 0 mm 3 mps 743 mmHg 89%
22:00 +7°C° 0 mm 3 mps 743 mmHg 93%
23:00 +5°C° 0 mm 3 mps 743 mmHg 93%
Show more

We Need Your Consent

Meteoprog and our Service Providers may store and access personal data such as cookies, device identifiers or other similar technologies on your device and process such data to personalise content and ads, as well as provide social media features and to analyse the traffic.

  • Store and/or access information on your device

    Cookies, device identifiers or other information can be stored or accessed on your device for the purposes indicated above.

  • Personalised ads and content, ad and content measurement, audience insights, and products development

    Ads and content can be personalised based on a profile. More data can be added to better personalise ads and content. Ad and content performance can be measured. Insights about the audience who saw the ads and content can be derived. Such data can be used to develop or improve user’s experience, systems and software.

By clicking ‘I Agree’ you will allow the use of indicated cookies, device identifiers, web beacons or other similar technologies. Your settings can be changed in the browser on your device.

For certain purposes, legitimate interests may be relied on, rather than consent. You can read more about this in our Privacy and Cookie Policy.